Year,Month,Day,Hour,Minute,Value (Times are PST for temperature in C)
2021,06,28,00,00,23.70
2021,06,28,00,01,23.70
2021,06,28,00,02,23.70
2021,06,28,00,03,23.70
2021,06,28,00,04,23.70
2021,06,28,00,05,23.70
2021,06,28,00,06,23.70
2021,06,28,00,07,23.70
2021,06,28,00,08,23.70
2021,06,28,00,09,23.60
2021,06,28,00,10,23.60
2021,06,28,00,11,23.60
2021,06,28,00,12,23.60
2021,06,28,00,13,23.60
2021,06,28,00,14,23.50
2021,06,28,00,15,23.50
2021,06,28,00,16,23.50
2021,06,28,00,17,23.50
2021,06,28,00,18,23.40
2021,06,28,00,19,23.40
2021,06,28,00,20,23.40
2021,06,28,00,21,23.40
2021,06,28,00,22,23.30
2021,06,28,00,23,23.30
2021,06,28,00,24,23.30
2021,06,28,00,25,23.30
2021,06,28,00,26,23.30
2021,06,28,00,27,23.30
2021,06,28,00,28,23.30
2021,06,28,00,29,23.30
2021,06,28,00,30,23.20
2021,06,28,00,31,23.20
2021,06,28,00,32,23.20
2021,06,28,00,33,23.20
2021,06,28,00,34,23.20
2021,06,28,00,35,23.20
2021,06,28,00,36,23.20
2021,06,28,00,37,23.10
2021,06,28,00,38,23.10
2021,06,28,00,39,23.10
2021,06,28,00,40,23.10
2021,06,28,00,41,23.10
2021,06,28,00,42,23.00
2021,06,28,00,43,23.00
2021,06,28,00,44,23.00
2021,06,28,00,45,22.90
2021,06,28,00,46,22.90
2021,06,28,00,47,22.90
2021,06,28,00,48,22.90
2021,06,28,00,49,22.90
2021,06,28,00,50,22.90
2021,06,28,00,51,22.90
2021,06,28,00,52,22.90
2021,06,28,00,53,22.90
2021,06,28,00,54,22.90
2021,06,28,00,55,22.80
2021,06,28,00,56,22.80
2021,06,28,00,57,22.80
2021,06,28,00,58,22.80
2021,06,28,00,59,22.80
2021,06,28,01,00,22.80
2021,06,28,01,01,22.70
2021,06,28,01,02,22.70
2021,06,28,01,03,22.70
2021,06,28,01,04,22.70
2021,06,28,01,05,22.60
2021,06,28,01,06,22.60
2021,06,28,01,07,22.60
2021,06,28,01,08,22.60
2021,06,28,01,09,22.50
2021,06,28,01,10,22.50
2021,06,28,01,11,22.50
2021,06,28,01,12,22.50
2021,06,28,01,13,22.40
2021,06,28,01,14,22.40
2021,06,28,01,15,22.40
2021,06,28,01,16,22.40
2021,06,28,01,17,22.30
2021,06,28,01,18,22.30
2021,06,28,01,19,22.30
2021,06,28,01,20,22.30
2021,06,28,01,21,22.20
2021,06,28,01,22,22.20
2021,06,28,01,23,22.20
2021,06,28,01,24,22.20
2021,06,28,01,25,22.20
2021,06,28,01,26,22.20
2021,06,28,01,27,22.10
2021,06,28,01,28,22.10
2021,06,28,01,29,22.10
2021,06,28,01,30,22.10
2021,06,28,01,31,22.10
2021,06,28,01,32,22.00
2021,06,28,01,33,22.00
2021,06,28,01,34,22.00
2021,06,28,01,35,22.00
2021,06,28,01,36,21.90
2021,06,28,01,37,21.90
2021,06,28,01,38,21.90
2021,06,28,01,39,21.90
2021,06,28,01,40,21.80
2021,06,28,01,41,21.80
2021,06,28,01,42,21.80
2021,06,28,01,43,21.80
2021,06,28,01,44,21.80
2021,06,28,01,45,21.80
2021,06,28,01,46,21.80
2021,06,28,01,47,21.80
2021,06,28,01,48,21.80
2021,06,28,01,49,21.70
2021,06,28,01,50,21.70
2021,06,28,01,51,21.70
2021,06,28,01,52,21.70
2021,06,28,01,53,21.70
2021,06,28,01,54,21.70
2021,06,28,01,55,21.70
2021,06,28,01,56,21.70
2021,06,28,01,57,21.70
2021,06,28,01,58,21.70
2021,06,28,01,59,21.60
2021,06,28,02,00,21.60
2021,06,28,02,01,21.60
2021,06,28,02,02,21.60
2021,06,28,02,03,21.60
2021,06,28,02,04,21.50
2021,06,28,02,05,21.50
2021,06,28,02,06,21.50
2021,06,28,02,07,21.50
2021,06,28,02,08,21.50
2021,06,28,02,09,21.40
2021,06,28,02,10,21.40
2021,06,28,02,11,21.40
2021,06,28,02,12,21.40
2021,06,28,02,13,21.40
2021,06,28,02,14,21.40
2021,06,28,02,15,21.40
2021,06,28,02,16,21.40
2021,06,28,02,17,21.40
2021,06,28,02,18,21.40
2021,06,28,02,19,21.40
2021,06,28,02,20,21.30
2021,06,28,02,21,21.30
2021,06,28,02,22,21.30
2021,06,28,02,23,21.30
2021,06,28,02,24,21.30
2021,06,28,02,25,21.30
2021,06,28,02,26,21.30
2021,06,28,02,27,21.30
2021,06,28,02,28,21.30
2021,06,28,02,29,21.30
2021,06,28,02,30,21.20
2021,06,28,02,31,21.20
2021,06,28,02,32,21.20
2021,06,28,02,33,21.20
2021,06,28,02,34,21.20
2021,06,28,02,35,21.20
2021,06,28,02,36,21.20
2021,06,28,02,37,21.20
2021,06,28,02,38,21.20
2021,06,28,02,39,21.20
2021,06,28,02,40,21.20
2021,06,28,02,41,21.20
2021,06,28,02,42,21.20
2021,06,28,02,43,21.20
2021,06,28,02,44,21.20
2021,06,28,02,45,21.20
2021,06,28,02,46,21.20
2021,06,28,02,47,21.10
2021,06,28,02,48,21.10
2021,06,28,02,49,21.10
2021,06,28,02,50,21.10
2021,06,28,02,51,21.00
2021,06,28,02,52,21.00
2021,06,28,02,53,20.90
2021,06,28,02,54,20.90
2021,06,28,02,55,20.90
2021,06,28,02,56,20.80
2021,06,28,02,57,20.80
2021,06,28,02,58,20.80
2021,06,28,02,59,20.80
2021,06,28,03,00,20.80
2021,06,28,03,01,20.80
2021,06,28,03,02,20.80
2021,06,28,03,03,20.80
2021,06,28,03,04,20.80
2021,06,28,03,05,20.70
2021,06,28,03,06,20.70
2021,06,28,03,07,20.70
2021,06,28,03,08,20.70
2021,06,28,03,09,20.70
2021,06,28,03,10,20.70
2021,06,28,03,11,20.70
2021,06,28,03,12,20.70
2021,06,28,03,13,20.70
2021,06,28,03,14,20.70
2021,06,28,03,15,20.70
2021,06,28,03,16,20.70
2021,06,28,03,17,20.70
2021,06,28,03,18,20.60
2021,06,28,03,19,20.60
2021,06,28,03,20,20.60
2021,06,28,03,21,20.60
2021,06,28,03,22,20.60
2021,06,28,03,23,20.60
2021,06,28,03,24,20.60
2021,06,28,03,25,20.60
2021,06,28,03,26,20.50
2021,06,28,03,27,20.50
2021,06,28,03,28,20.50
2021,06,28,03,29,20.50
2021,06,28,03,30,20.50
2021,06,28,03,31,20.50
2021,06,28,03,32,20.50
2021,06,28,03,33,20.50
2021,06,28,03,34,20.50
2021,06,28,03,35,20.50
2021,06,28,03,36,20.50
2021,06,28,03,37,20.40
2021,06,28,03,38,20.40
2021,06,28,03,39,20.40
2021,06,28,03,40,20.30
2021,06,28,03,41,20.30
2021,06,28,03,42,20.30
2021,06,28,03,43,20.30
2021,06,28,03,44,20.30
2021,06,28,03,45,20.30
2021,06,28,03,46,20.30
2021,06,28,03,47,20.20
2021,06,28,03,48,20.20
2021,06,28,03,49,20.20
2021,06,28,03,50,20.20
2021,06,28,03,51,20.10
2021,06,28,03,52,20.10
2021,06,28,03,53,20.10
2021,06,28,03,54,20.10
2021,06,28,03,55,20.10
2021,06,28,03,56,20.10
2021,06,28,03,57,20.10
2021,06,28,03,58,20.10
2021,06,28,03,59,20.10
2021,06,28,04,00,20.10
2021,06,28,04,01,20.10
2021,06,28,04,02,20.10
2021,06,28,04,03,20.10
2021,06,28,04,04,20.10
2021,06,28,04,05,20.00
2021,06,28,04,06,20.00
2021,06,28,04,07,20.00
2021,06,28,04,08,20.00
2021,06,28,04,09,20.00
2021,06,28,04,10,20.00
2021,06,28,04,11,20.00
2021,06,28,04,12,20.10
2021,06,28,04,13,20.10
2021,06,28,04,14,20.00
2021,06,28,04,15,19.90
2021,06,28,04,16,19.90
2021,06,28,04,17,19.90
2021,06,28,04,18,19.90
2021,06,28,04,19,19.80
2021,06,28,04,20,19.80
2021,06,28,04,21,19.80
2021,06,28,04,22,19.80
2021,06,28,04,23,19.80
2021,06,28,04,24,19.80
2021,06,28,04,25,19.80
2021,06,28,04,26,19.80
2021,06,28,04,27,19.80
2021,06,28,04,28,19.80
2021,06,28,04,29,19.90
2021,06,28,04,30,19.90
2021,06,28,04,31,19.90
2021,06,28,04,32,20.00
2021,06,28,04,33,20.00
2021,06,28,04,34,20.10
2021,06,28,04,35,20.10
2021,06,28,04,36,20.20
2021,06,28,04,37,20.20
2021,06,28,04,38,20.30
2021,06,28,04,39,20.30
2021,06,28,04,40,20.40
2021,06,28,04,41,20.40
2021,06,28,04,42,20.50
2021,06,28,04,43,20.60
2021,06,28,04,44,20.70
2021,06,28,04,45,20.80
2021,06,28,04,46,20.90
2021,06,28,04,47,21.10
2021,06,28,04,48,21.30
2021,06,28,04,49,21.40
2021,06,28,04,50,21.60
2021,06,28,04,51,21.80
2021,06,28,04,52,22.00
2021,06,28,04,53,22.20
2021,06,28,04,54,22.40
2021,06,28,04,55,22.60
2021,06,28,04,56,22.70
2021,06,28,04,57,22.90
2021,06,28,04,58,23.10
2021,06,28,04,59,23.30
2021,06,28,05,00,23.40
2021,06,28,05,01,23.50
2021,06,28,05,02,23.60
2021,06,28,05,03,23.60
2021,06,28,05,04,23.60
2021,06,28,05,05,23.60
2021,06,28,05,06,23.70
2021,06,28,05,07,23.80
2021,06,28,05,08,23.80
2021,06,28,05,09,23.90
2021,06,28,05,10,23.90
2021,06,28,05,11,24.00
2021,06,28,05,12,24.10
2021,06,28,05,13,24.20
2021,06,28,05,14,24.20
2021,06,28,05,15,24.30
2021,06,28,05,16,24.30
2021,06,28,05,17,24.50
2021,06,28,05,18,24.60
2021,06,28,05,19,24.70
2021,06,28,05,20,24.70
2021,06,28,05,21,24.80
2021,06,28,05,22,24.80
2021,06,28,05,23,24.80
2021,06,28,05,24,24.90
2021,06,28,05,25,24.90
2021,06,28,05,26,25.00
2021,06,28,05,27,25.00
2021,06,28,05,28,25.00
2021,06,28,05,29,25.10
2021,06,28,05,30,25.10
2021,06,28,05,31,25.20
2021,06,28,05,32,25.20
2021,06,28,05,33,25.20
2021,06,28,05,34,25.30
2021,06,28,05,35,25.30
2021,06,28,05,36,25.30
2021,06,28,05,37,25.30
2021,06,28,05,38,25.30
2021,06,28,05,39,25.20
2021,06,28,05,40,25.20
2021,06,28,05,41,25.20
2021,06,28,05,42,25.30
2021,06,28,05,43,25.30
2021,06,28,05,44,25.30
2021,06,28,05,45,25.30
2021,06,28,05,46,25.30
2021,06,28,05,47,25.30
2021,06,28,05,48,25.30
2021,06,28,05,49,25.30
2021,06,28,05,50,25.30
2021,06,28,05,51,25.20
2021,06,28,05,52,25.20
2021,06,28,05,53,25.10
2021,06,28,05,54,25.10
2021,06,28,05,55,25.10
2021,06,28,05,56,25.10
2021,06,28,05,57,25.10
2021,06,28,05,58,25.00
2021,06,28,05,59,25.00
2021,06,28,06,00,25.00
2021,06,28,06,01,25.10
2021,06,28,06,02,25.10
2021,06,28,06,03,25.10
2021,06,28,06,04,25.10
2021,06,28,06,05,25.10
2021,06,28,06,06,25.10
2021,06,28,06,07,25.10
2021,06,28,06,08,25.10
2021,06,28,06,09,25.20
2021,06,28,06,10,25.20
2021,06,28,06,11,25.30
2021,06,28,06,12,25.40
2021,06,28,06,13,25.40
2021,06,28,06,14,25.50
2021,06,28,06,15,25.50
2021,06,28,06,16,25.50
2021,06,28,06,17,25.50
2021,06,28,06,18,25.50
2021,06,28,06,19,25.50
2021,06,28,06,20,25.50
2021,06,28,06,21,25.50
2021,06,28,06,22,25.50
2021,06,28,06,23,25.50
2021,06,28,06,24,25.50
2021,06,28,06,25,25.50
2021,06,28,06,26,25.50
2021,06,28,06,27,25.50
2021,06,28,06,28,25.50
2021,06,28,06,29,25.50
2021,06,28,06,30,25.50
2021,06,28,06,31,25.50
2021,06,28,06,32,25.50
2021,06,28,06,33,25.60
2021,06,28,06,34,25.60
2021,06,28,06,35,25.60
2021,06,28,06,36,25.60
2021,06,28,06,37,25.60
2021,06,28,06,38,25.60
2021,06,28,06,39,25.60
2021,06,28,06,40,25.70
2021,06,28,06,41,25.70
2021,06,28,06,42,25.70
2021,06,28,06,43,25.70
2021,06,28,06,44,25.80
2021,06,28,06,45,25.80
2021,06,28,06,46,25.90
2021,06,28,06,47,26.00
2021,06,28,06,48,26.00
2021,06,28,06,49,26.10
2021,06,28,06,50,26.20
2021,06,28,06,51,26.20
2021,06,28,06,52,26.20
2021,06,28,06,53,26.20
2021,06,28,06,54,26.30
2021,06,28,06,55,26.30
2021,06,28,06,56,26.40
2021,06,28,06,57,26.40
2021,06,28,06,58,26.40
2021,06,28,06,59,26.50
2021,06,28,07,00,26.50
2021,06,28,07,01,26.60
2021,06,28,07,02,26.60
2021,06,28,07,03,26.60
2021,06,28,07,04,26.70
2021,06,28,07,05,26.70
2021,06,28,07,06,26.70
2021,06,28,07,07,26.70
2021,06,28,07,08,26.70
2021,06,28,07,09,26.70
2021,06,28,07,10,26.70
2021,06,28,07,11,26.80
2021,06,28,07,12,26.80
2021,06,28,07,13,26.80
2021,06,28,07,14,26.80
2021,06,28,07,15,26.90
2021,06,28,07,16,26.90
2021,06,28,07,17,27.00
2021,06,28,07,18,27.00
2021,06,28,07,19,27.10
2021,06,28,07,20,27.20
2021,06,28,07,21,27.20
2021,06,28,07,22,27.30
2021,06,28,07,23,27.40
2021,06,28,07,24,27.50
2021,06,28,07,25,27.50
2021,06,28,07,26,27.60
2021,06,28,07,27,27.60
2021,06,28,07,28,27.70
2021,06,28,07,29,27.70
2021,06,28,07,30,27.70
2021,06,28,07,31,27.70
2021,06,28,07,32,27.70
2021,06,28,07,33,27.70
2021,06,28,07,34,27.70
2021,06,28,07,35,27.80
2021,06,28,07,36,27.80
2021,06,28,07,37,27.80
2021,06,28,07,38,27.90
2021,06,28,07,39,28.00
2021,06,28,07,40,28.00
2021,06,28,07,41,28.10
2021,06,28,07,42,28.10
2021,06,28,07,43,28.20
2021,06,28,07,44,28.30
2021,06,28,07,45,28.40
2021,06,28,07,46,28.50
2021,06,28,07,47,28.60
2021,06,28,07,48,28.80
2021,06,28,07,49,29.00
2021,06,28,07,50,29.10
2021,06,28,07,51,29.20
2021,06,28,07,52,29.40
2021,06,28,07,53,29.50
2021,06,28,07,54,29.70
2021,06,28,07,55,29.80
2021,06,28,07,56,29.90
2021,06,28,07,57,30.00
2021,06,28,07,58,30.20
2021,06,28,07,59,30.30
2021,06,28,08,00,30.40
2021,06,28,08,01,30.50
2021,06,28,08,02,30.70
2021,06,28,08,03,30.70
2021,06,28,08,04,30.80
2021,06,28,08,05,30.90
2021,06,28,08,06,30.90
2021,06,28,08,07,31.00
2021,06,28,08,08,31.10
2021,06,28,08,09,31.10
2021,06,28,08,10,31.10
2021,06,28,08,11,31.20
2021,06,28,08,12,31.20
2021,06,28,08,13,31.30
2021,06,28,08,14,31.30
2021,06,28,08,15,31.40
2021,06,28,08,16,31.40
2021,06,28,08,17,31.50
2021,06,28,08,18,31.60
2021,06,28,08,19,31.60
2021,06,28,08,20,31.70
2021,06,28,08,21,31.70
2021,06,28,08,22,31.80
2021,06,28,08,23,31.80
2021,06,28,08,24,31.90
2021,06,28,08,25,31.90
2021,06,28,08,26,32.00
2021,06,28,08,27,32.00
2021,06,28,08,28,32.10
2021,06,28,08,29,32.10
2021,06,28,08,30,32.20
2021,06,28,08,31,32.20
2021,06,28,08,32,32.30
2021,06,28,08,33,32.40
2021,06,28,08,34,32.40
2021,06,28,08,35,32.50
2021,06,28,08,36,32.60
2021,06,28,08,37,32.60
2021,06,28,08,38,32.70
2021,06,28,08,39,32.70
2021,06,28,08,40,32.70
2021,06,28,08,41,32.80
2021,06,28,08,42,32.80
2021,06,28,08,43,32.80
2021,06,28,08,44,32.80
2021,06,28,08,45,32.80
2021,06,28,08,46,32.80
2021,06,28,08,47,32.90
2021,06,28,08,48,32.90
2021,06,28,08,49,32.90
2021,06,28,08,50,32.90
2021,06,28,08,51,32.90
2021,06,28,08,52,32.90
2021,06,28,08,53,32.90
2021,06,28,08,54,33.00
2021,06,28,08,55,33.00
2021,06,28,08,56,33.10
2021,06,28,08,57,33.10
2021,06,28,08,58,33.20
2021,06,28,08,59,33.20
2021,06,28,09,00,33.30
2021,06,28,09,01,33.30
2021,06,28,09,02,33.30
2021,06,28,09,03,33.30
2021,06,28,09,04,33.30
2021,06,28,09,05,33.30
2021,06,28,09,06,33.40
2021,06,28,09,07,33.40
2021,06,28,09,08,33.50
2021,06,28,09,09,33.50
2021,06,28,09,10,33.60
2021,06,28,09,11,33.60
2021,06,28,09,12,33.60
2021,06,28,09,13,33.70
2021,06,28,09,14,33.70
2021,06,28,09,15,33.80
2021,06,28,09,16,33.90
2021,06,28,09,17,33.90
2021,06,28,09,18,34.00
2021,06,28,09,19,34.10
2021,06,28,09,20,34.10
2021,06,28,09,21,34.20
2021,06,28,09,22,34.20
2021,06,28,09,23,34.30
2021,06,28,09,24,34.40
2021,06,28,09,25,34.40
2021,06,28,09,26,34.50
2021,06,28,09,27,34.60
2021,06,28,09,28,34.60
2021,06,28,09,29,34.50
2021,06,28,09,30,34.50
2021,06,28,09,31,34.50
2021,06,28,09,32,34.50
2021,06,28,09,33,34.60
2021,06,28,09,34,34.60
2021,06,28,09,35,34.60
2021,06,28,09,36,34.60
2021,06,28,09,37,34.70
2021,06,28,09,38,34.70
2021,06,28,09,39,34.80
2021,06,28,09,40,34.90
2021,06,28,09,41,34.90
2021,06,28,09,42,35.00
2021,06,28,09,43,35.10
2021,06,28,09,44,35.20
2021,06,28,09,45,35.20
2021,06,28,09,46,35.20
2021,06,28,09,47,35.20
2021,06,28,09,48,35.20
2021,06,28,09,49,35.20
2021,06,28,09,50,35.20
2021,06,28,09,51,35.30
2021,06,28,09,52,35.30
2021,06,28,09,53,35.30
2021,06,28,09,54,35.30
2021,06,28,09,55,35.30
2021,06,28,09,56,35.30
2021,06,28,09,57,35.30
2021,06,28,09,58,35.30
2021,06,28,09,59,35.30
2021,06,28,10,00,35.30
2021,06,28,10,01,35.40
2021,06,28,10,02,35.40
2021,06,28,10,03,35.40
2021,06,28,10,04,35.40
2021,06,28,10,05,35.40
2021,06,28,10,06,35.40
2021,06,28,10,07,35.40
2021,06,28,10,08,35.30
2021,06,28,10,09,35.30
2021,06,28,10,10,35.40
2021,06,28,10,11,35.30
2021,06,28,10,12,35.30
2021,06,28,10,13,35.40
2021,06,28,10,14,35.40
2021,06,28,10,15,35.50
2021,06,28,10,16,35.50
2021,06,28,10,17,35.60
2021,06,28,10,18,35.60
2021,06,28,10,19,35.70
2021,06,28,10,20,35.70
2021,06,28,10,21,35.80
2021,06,28,10,22,35.80
2021,06,28,10,23,35.80
2021,06,28,10,24,35.80
2021,06,28,10,25,35.80
2021,06,28,10,26,35.90
2021,06,28,10,27,35.90
2021,06,28,10,28,36.00
2021,06,28,10,29,36.10
2021,06,28,10,30,36.10
2021,06,28,10,31,36.20
2021,06,28,10,32,36.20
2021,06,28,10,33,36.20
2021,06,28,10,34,36.20
2021,06,28,10,35,36.20
2021,06,28,10,36,36.20
2021,06,28,10,37,36.30
2021,06,28,10,38,36.30
2021,06,28,10,39,36.40
2021,06,28,10,40,36.40
2021,06,28,10,41,36.40
2021,06,28,10,42,36.40
2021,06,28,10,43,36.50
2021,06,28,10,44,36.60
2021,06,28,10,45,36.60
2021,06,28,10,46,36.70
2021,06,28,10,47,36.70
2021,06,28,10,48,36.70
2021,06,28,10,49,36.80
2021,06,28,10,50,36.80
2021,06,28,10,51,36.90
2021,06,28,10,52,36.90
2021,06,28,10,53,36.90
2021,06,28,10,54,37.00
2021,06,28,10,55,37.10
2021,06,28,10,56,37.10
2021,06,28,10,57,37.20
2021,06,28,10,58,37.30
2021,06,28,10,59,37.30
2021,06,28,11,00,37.40
2021,06,28,11,01,37.40
2021,06,28,11,02,37.40
2021,06,28,11,03,37.40
2021,06,28,11,04,37.50
2021,06,28,11,05,37.50
2021,06,28,11,06,37.40
2021,06,28,11,07,37.40
2021,06,28,11,08,37.40
2021,06,28,11,09,37.40
2021,06,28,11,10,37.40
2021,06,28,11,11,37.40
2021,06,28,11,12,37.30
2021,06,28,11,13,37.30
2021,06,28,11,14,37.30
2021,06,28,11,15,37.20
2021,06,28,11,16,37.20
2021,06,28,11,17,37.20
2021,06,28,11,18,37.30
2021,06,28,11,19,37.40
2021,06,28,11,20,37.40
2021,06,28,11,21,37.50
2021,06,28,11,22,37.60
2021,06,28,11,23,37.50
2021,06,28,11,24,37.50
2021,06,28,11,25,37.50
2021,06,28,11,26,37.50
2021,06,28,11,27,37.40
2021,06,28,11,28,37.40
2021,06,28,11,29,37.40
2021,06,28,11,30,37.40
2021,06,28,11,31,37.40
2021,06,28,11,32,37.40
2021,06,28,11,33,37.40
2021,06,28,11,34,37.40
2021,06,28,11,35,37.40
2021,06,28,11,36,37.40
2021,06,28,11,37,37.30
2021,06,28,11,38,37.30
2021,06,28,11,39,37.30
2021,06,28,11,40,37.30
2021,06,28,11,41,37.30
2021,06,28,11,42,37.30
2021,06,28,11,43,37.30
2021,06,28,11,44,37.30
2021,06,28,11,45,37.30
2021,06,28,11,46,37.40
2021,06,28,11,47,37.40
2021,06,28,11,48,37.50
2021,06,28,11,49,37.50
2021,06,28,11,50,37.60
2021,06,28,11,51,37.70
2021,06,28,11,52,37.80
2021,06,28,11,53,37.80
2021,06,28,11,54,37.90
2021,06,28,11,55,37.90
2021,06,28,11,56,37.90
2021,06,28,11,57,37.90
2021,06,28,11,58,37.80
2021,06,28,11,59,37.80
2021,06,28,12,00,37.80
2021,06,28,12,01,37.80
2021,06,28,12,02,37.80
2021,06,28,12,03,37.80
2021,06,28,12,04,37.80
2021,06,28,12,05,37.80
2021,06,28,12,06,37.80
2021,06,28,12,07,37.80
2021,06,28,12,08,37.80
2021,06,28,12,09,37.80
2021,06,28,12,10,37.80
2021,06,28,12,11,37.80
2021,06,28,12,12,37.80
2021,06,28,12,13,37.80
2021,06,28,12,14,37.80
2021,06,28,12,15,37.80
2021,06,28,12,16,37.80
2021,06,28,12,17,37.80
2021,06,28,12,18,37.90
2021,06,28,12,19,37.90
2021,06,28,12,20,37.90
2021,06,28,12,21,37.90
2021,06,28,12,22,37.80
2021,06,28,12,23,37.80
2021,06,28,12,24,37.70
2021,06,28,12,25,37.60
2021,06,28,12,26,37.60
2021,06,28,12,27,37.50
2021,06,28,12,28,37.50
2021,06,28,12,29,37.40
2021,06,28,12,30,37.40
2021,06,28,12,31,37.40
2021,06,28,12,32,37.40
2021,06,28,12,33,37.40
2021,06,28,12,34,37.50
2021,06,28,12,35,37.50
2021,06,28,12,36,37.50
2021,06,28,12,37,37.50
2021,06,28,12,38,37.50
2021,06,28,12,39,37.40
2021,06,28,12,40,37.40
2021,06,28,12,41,37.40
2021,06,28,12,42,37.30
2021,06,28,12,43,37.30
2021,06,28,12,44,37.30
2021,06,28,12,45,37.30
2021,06,28,12,46,37.30
2021,06,28,12,47,37.40
2021,06,28,12,48,37.50
2021,06,28,12,49,37.60
2021,06,28,12,50,37.60
2021,06,28,12,51,37.70
2021,06,28,12,52,37.70
2021,06,28,12,53,37.70
2021,06,28,12,54,37.70
2021,06,28,12,55,37.80
2021,06,28,12,56,37.90
2021,06,28,12,57,38.00
2021,06,28,12,58,38.10
2021,06,28,12,59,38.10
2021,06,28,13,00,38.10
2021,06,28,13,01,38.20
2021,06,28,13,02,38.20
2021,06,28,13,03,38.20
2021,06,28,13,04,38.30
2021,06,28,13,05,38.30
2021,06,28,13,06,38.30
2021,06,28,13,07,38.30
2021,06,28,13,08,38.30
2021,06,28,13,09,38.30
2021,06,28,13,10,38.30
2021,06,28,13,11,38.20
2021,06,28,13,12,38.30
2021,06,28,13,13,38.30
2021,06,28,13,14,38.30
2021,06,28,13,15,38.30
2021,06,28,13,16,38.30
2021,06,28,13,17,38.40
2021,06,28,13,18,38.40
2021,06,28,13,19,38.40
2021,06,28,13,20,38.50
2021,06,28,13,21,38.60
2021,06,28,13,22,38.60
2021,06,28,13,23,38.70
2021,06,28,13,24,38.70
2021,06,28,13,25,38.70
2021,06,28,13,26,38.70
2021,06,28,13,27,38.70
2021,06,28,13,28,38.70
2021,06,28,13,29,38.60
2021,06,28,13,30,38.50
2021,06,28,13,31,38.50
2021,06,28,13,32,38.40
2021,06,28,13,33,38.50
2021,06,28,13,34,38.50
2021,06,28,13,35,38.60
2021,06,28,13,36,38.60
2021,06,28,13,37,38.60
2021,06,28,13,38,38.70
2021,06,28,13,39,38.60
2021,06,28,13,40,38.60
2021,06,28,13,41,38.60
2021,06,28,13,42,38.50
2021,06,28,13,43,38.40
2021,06,28,13,44,38.40
2021,06,28,13,45,38.40
2021,06,28,13,46,38.30
2021,06,28,13,47,38.30
2021,06,28,13,48,38.30
2021,06,28,13,49,38.30
2021,06,28,13,50,38.30
2021,06,28,13,51,38.30
2021,06,28,13,52,38.30
2021,06,28,13,53,38.30
2021,06,28,13,54,38.30
2021,06,28,13,55,38.30
2021,06,28,13,56,38.30
2021,06,28,13,57,38.20
2021,06,28,13,58,38.20
2021,06,28,13,59,38.20
2021,06,28,14,00,38.20
2021,06,28,14,01,38.30
2021,06,28,14,02,38.30
2021,06,28,14,03,38.30
2021,06,28,14,04,38.30
2021,06,28,14,05,38.40
2021,06,28,14,06,38.50
2021,06,28,14,07,38.50
2021,06,28,14,08,38.50
2021,06,28,14,09,38.60
2021,06,28,14,10,38.60
2021,06,28,14,11,38.60
2021,06,28,14,12,38.60
2021,06,28,14,13,38.50
2021,06,28,14,14,38.50
2021,06,28,14,15,38.50
2021,06,28,14,16,38.50
2021,06,28,14,17,38.50
2021,06,28,14,18,38.50
2021,06,28,14,19,38.50
2021,06,28,14,20,38.60
2021,06,28,14,21,38.70
2021,06,28,14,22,38.70
2021,06,28,14,23,38.80
2021,06,28,14,24,38.90
2021,06,28,14,25,39.00
2021,06,28,14,26,39.00
2021,06,28,14,27,39.10
2021,06,28,14,28,39.10
2021,06,28,14,29,39.10
2021,06,28,14,30,39.10
2021,06,28,14,31,39.10
2021,06,28,14,32,39.10
2021,06,28,14,33,39.00
2021,06,28,14,34,39.00
2021,06,28,14,35,39.00
2021,06,28,14,36,39.00
2021,06,28,14,37,39.10
2021,06,28,14,38,39.10
2021,06,28,14,39,39.20
2021,06,28,14,40,39.20
2021,06,28,14,41,39.20
2021,06,28,14,42,39.20
2021,06,28,14,43,39.20
2021,06,28,14,44,39.20
2021,06,28,14,45,39.30
2021,06,28,14,46,39.30
2021,06,28,14,47,39.30
2021,06,28,14,48,39.30
2021,06,28,14,49,39.30
2021,06,28,14,50,39.20
2021,06,28,14,51,39.20
2021,06,28,14,52,39.20
2021,06,28,14,53,39.20
2021,06,28,14,54,39.30
2021,06,28,14,55,39.30
2021,06,28,14,56,39.30
2021,06,28,14,57,39.30
2021,06,28,14,58,39.30
2021,06,28,14,59,39.30
2021,06,28,15,00,39.30
2021,06,28,15,01,39.20
2021,06,28,15,02,39.20
2021,06,28,15,03,39.20
2021,06,28,15,04,39.20
2021,06,28,15,05,39.20
2021,06,28,15,06,39.20
2021,06,28,15,07,39.20
2021,06,28,15,08,39.20
2021,06,28,15,09,39.20
2021,06,28,15,10,39.30
2021,06,28,15,11,39.30
2021,06,28,15,12,39.30
2021,06,28,15,13,39.20
2021,06,28,15,14,39.20
2021,06,28,15,15,39.20
2021,06,28,15,16,39.20
2021,06,28,15,17,39.20
2021,06,28,15,18,39.30
2021,06,28,15,19,39.30
2021,06,28,15,20,39.30
2021,06,28,15,21,39.40
2021,06,28,15,22,39.40
2021,06,28,15,23,39.40
2021,06,28,15,24,39.50
2021,06,28,15,25,39.50
2021,06,28,15,26,39.50
2021,06,28,15,27,39.50
2021,06,28,15,28,39.60
2021,06,28,15,29,39.60
2021,06,28,15,30,39.60
2021,06,28,15,31,39.60
2021,06,28,15,32,39.60
2021,06,28,15,33,39.60
2021,06,28,15,34,39.60
2021,06,28,15,35,39.70
2021,06,28,15,36,39.70
2021,06,28,15,37,39.70
2021,06,28,15,38,39.70
2021,06,28,15,39,39.70
2021,06,28,15,40,39.70
2021,06,28,15,41,39.80
2021,06,28,15,42,39.80
2021,06,28,15,43,39.80
2021,06,28,15,44,39.90
2021,06,28,15,45,40.00
2021,06,28,15,46,40.10
2021,06,28,15,47,40.10
2021,06,28,15,48,40.20
2021,06,28,15,49,40.20
2021,06,28,15,50,40.20
2021,06,28,15,51,40.20
2021,06,28,15,52,40.20
2021,06,28,15,53,40.20
2021,06,28,15,54,40.20
2021,06,28,15,55,40.30
2021,06,28,15,56,40.30
2021,06,28,15,57,40.30
2021,06,28,15,58,40.30
2021,06,28,15,59,40.30
2021,06,28,16,00,40.30
2021,06,28,16,01,40.30
2021,06,28,16,02,40.30
2021,06,28,16,03,40.20
2021,06,28,16,04,40.20
2021,06,28,16,05,40.20
2021,06,28,16,06,40.10
2021,06,28,16,07,40.10
2021,06,28,16,08,40.10
2021,06,28,16,09,40.10
2021,06,28,16,10,40.00
2021,06,28,16,11,40.00
2021,06,28,16,12,40.00
2021,06,28,16,13,40.00
2021,06,28,16,14,40.00
2021,06,28,16,15,40.10
2021,06,28,16,16,40.10
2021,06,28,16,17,40.10
2021,06,28,16,18,40.10
2021,06,28,16,19,40.20
2021,06,28,16,20,40.20
2021,06,28,16,21,40.20
2021,06,28,16,22,40.20
2021,06,28,16,23,40.20
2021,06,28,16,24,40.20
2021,06,28,16,25,40.20
2021,06,28,16,26,40.20
2021,06,28,16,27,40.20
2021,06,28,16,28,40.20
2021,06,28,16,29,40.20
2021,06,28,16,30,40.20
2021,06,28,16,31,40.20
2021,06,28,16,32,40.20
2021,06,28,16,33,40.20
2021,06,28,16,34,40.20
2021,06,28,16,35,40.20
2021,06,28,16,36,40.20
2021,06,28,16,37,40.20
2021,06,28,16,38,40.20
2021,06,28,16,39,40.20
2021,06,28,16,40,40.20
2021,06,28,16,41,40.20
2021,06,28,16,42,40.10
2021,06,28,16,43,40.10
2021,06,28,16,44,40.10
2021,06,28,16,45,40.10
2021,06,28,16,46,40.00
2021,06,28,16,47,40.00
2021,06,28,16,48,40.00
2021,06,28,16,49,40.00
2021,06,28,16,50,40.00
2021,06,28,16,51,40.00
2021,06,28,16,52,39.90
2021,06,28,16,53,39.90
2021,06,28,16,54,39.90
2021,06,28,16,55,39.90
2021,06,28,16,56,39.90
2021,06,28,16,57,39.90
2021,06,28,16,58,39.90
2021,06,28,16,59,40.00
2021,06,28,17,00,40.00
2021,06,28,17,01,40.10
2021,06,28,17,02,40.10
2021,06,28,17,03,40.00
2021,06,28,17,04,39.90
2021,06,28,17,05,39.90
2021,06,28,17,06,39.90
2021,06,28,17,07,39.80
2021,06,28,17,08,39.80
2021,06,28,17,09,39.80
2021,06,28,17,10,39.80
2021,06,28,17,11,39.70
2021,06,28,17,12,39.70
2021,06,28,17,13,39.70
2021,06,28,17,14,39.60
2021,06,28,17,15,39.60
2021,06,28,17,16,39.60
2021,06,28,17,17,39.50
2021,06,28,17,18,39.50
2021,06,28,17,19,39.40